[[[{"header":{"parameterUnit":"kt","parameterCategory":2,"dx":1,"dy":1,"la1":30.253999710083008,"la2":30.299108505249023,"lo1":-89.0895004272461,"lo2":-89.04439544677734,"nx":28,"ny":28,"refTime":"2022-10-21T21:00:00:Z","depth":0,"parameterNumber":1,"parameterNumberName":"U-component_of_WINDS"},"data":[-3.7105,-3.7246,-3.731,-3.75,-3.759,-3.7731,-3.7802,-3.7901,-3.7996,-3.8172,-3.8285,-3.8364,-3.8485,-3.8636,-3.8762,-3.8795,-3.8843,-3.8845,-3.8884,-3.8815,-3.881,-3.8805,-3.8775,-3.8855,-3.8855,-3.8945,-3.8946,-3.8947,-3.7046,-3.7136,-3.7256,-3.7415,-3.7519,-3.7555,-3.7685,-3.7769,-3.7894,-3.8013,-3.8128,-3.8289,-3.8424,-3.8548,-3.8689,-3.8757,-3.8782,-3.879,-3.8786,-3.8805,-3.8733,-3.8701,-3.8767,-3.8767,-3.8767,-3.8767,-3.8767,-3.8767,-3.6956,-3.7038,-3.7173,-3.7304,-3.7402,-3.7509,-3.7598,-3.7695,-3.7813,-3.7969,-3.8024,-3.8168,-3.8299,-3.8503,-3.8587,-3.8701,-3.8704,-3.8734,-3.8742,-3.8747,-3.8744,-3.8603,-3.8729,-3.8729,-3.8729,-3.8729,-3.8729,0,-3.6911,-3.6959,-3.7079,-3.7218,-3.7317,-3.7431,-3.7547,-3.7605,-3.7731,-3.7824,-3.7964,-3.8056,-3.8237,-3.8376,-3.8524,-3.8608,-3.8656,-3.8668,-3.8689,-3.8664,-3.8621,-3.8645,-3.8525,-3.8664,-3.8664,-3.8664,-3.8664,-3.8664,-3.6824,-3.6913,-3.7086,-3.7161,-3.7241,-3.7362,-3.7447,-3.7552,-3.7638,-3.7797,-3.7864,-3.8006,-3.8124,-3.8338,-3.8451,-3.8588,-3.8612,-3.8658,-3.8633,-3.8605,-3.8613,-3.8606,-3.8616,-3.8661,-3.8661,-3.8661,-3.8661,0,-3.6769,-3.6876,-3.7035,-3.7198,-3.7242,-3.733,-3.747,-3.7557,-3.7642,-3.7774,-3.7811,-3.7945,-3.8081,-3.8188,-3.8365,-3.8417,-3.8563,-3.8584,-3.8517,-3.8527,-3.8578,-3.8572,-3.8729,-3.8755,-3.8674,-3.8674,-3.8675,0,-3.6738,-3.685,-3.7003,-3.709,-3.7218,-3.7322,-3.7447,-3.7533,-3.7649,-3.7754,-3.7826,-3.7922,-3.8045,-3.8157,-3.8234,-3.8372,-3.8406,-3.8453,-3.8472,-3.8447,-3.8441,-3.8494,-3.849,-3.8513,-3.8512,-3.8511,-3.851,0,-3.664,-3.6855,-3.6997,-3.7063,-3.725,-3.7314,-3.7394,-3.7526,-3.7609,-3.7734,-3.7789,-3.7927,-3.8003,-3.8109,-3.8206,-3.8185,-3.8378,-3.8369,-3.8427,-3.8424,-3.8464,-3.846,-3.8572,-3.8509,-3.8509,-3.8509,-3.8508,0,-3.6631,-3.6756,-3.6945,-3.7102,-3.7154,-3.7248,-3.7391,-3.7496,-3.763,-3.7684,-3.7784,-3.7845,-3.7976,-3.7959,-3.814,-3.8085,-3.8155,-3.8213,-3.822,-3.8237,-3.8216,-3.8264,-3.8361,-3.8374,-3.8254,-3.8252,-3.825,0,-3.649,-3.6711,-3.6801,-3.6979,-3.7096,-3.7169,-3.7276,-3.7392,-3.7474,-3.7584,-3.7675,-3.7801,-3.7812,-3.7866,-3.7942,-3.804,-3.8112,-3.8034,-3.8192,-3.8197,-3.8153,-3.8244,-3.8231,-3.8327,-3.8224,-3.8227,-3.8229,0,-3.6395,-3.6621,-3.6647,-3.6727,-3.6898,-3.6996,-3.7118,-3.7266,-3.7335,-3.7458,-3.7563,-3.7743,-3.7758,-3.7848,-3.7913,-3.7986,-3.8066,-3.7992,-3.7997,-3.8001,-3.8221,-3.8208,-3.8223,-3.8094,-3.8097,-3.81,-3.8208,0,-3.6356,-3.6481,-3.6554,-3.6729,-3.6822,-3.694,-3.7055,-3.7137,-3.719,-3.7274,-3.7431,-3.7556,-3.7707,-3.7754,-3.7807,-3.794,-3.7934,-3.7949,-3.7941,-3.8,-3.8038,-3.8054,-3.7874,-3.7874,-3.7875,-3.7875,0,0,-3.6194,-3.6375,-3.6472,-3.6594,-3.6679,-3.6754,-3.687,-3.6961,-3.7144,-3.7201,-3.7197,-3.7468,-3.757,-3.7748,-3.7776,-3.7837,-3.7872,-3.7847,-3.7971,-3.7981,-3.7991,-3.803,-3.8045,-3.7876,-3.7876,-3.7876,-3.7876,0,-3.6204,-3.6306,-3.6419,-3.6518,-3.6668,-3.6752,-3.6779,-3.6941,-3.7,-3.7155,-3.7215,-3.7323,-3.7538,-3.7637,-3.7716,-3.7828,-3.7868,-3.7866,-3.7887,-3.7971,-3.798,-3.7989,-3.8029,-3.8042,-3.7877,-3.7877,-3.7877,0,-3.6129,-3.6249,-3.6316,-3.6512,-3.6611,-3.673,-3.6749,-3.6874,-3.6963,-3.704,-3.7193,-3.7278,-3.7421,-3.7575,-3.7648,-3.7647,-3.7858,-3.7812,-3.7813,-3.7823,-3.791,-3.7921,-3.7931,-3.7796,-3.7795,-3.7795,0,0,-3.6122,-3.6239,-3.6401,-3.6523,-3.6581,-3.6708,-3.6783,-3.6844,-3.6971,-3.7021,-3.7132,-3.7253,-3.738,-3.746,-3.7585,-3.7737,-3.7776,-3.7797,-3.7801,-3.7804,-3.7815,-3.7902,-3.7914,-3.7792,-3.7792,-3.7792,0,0,-3.6119,-3.6311,-3.6342,-3.6499,-3.6617,-3.6785,-3.6855,-3.6898,-3.7021,-3.7021,-3.713,-3.7167,-3.7313,-3.7395,-3.7343,-3.7584,-3.7573,-3.7588,-3.7525,-3.7532,-3.7536,-3.7513,-3.738,0,0,0,0,0,-3.6188,-3.6287,-3.6313,-3.6357,-3.6606,-3.677,-3.6803,-3.6895,-3.6885,-3.6939,-3.7038,-3.7076,-3.7389,-3.7346,-3.7387,-3.7444,-3.7755,-3.7761,-3.7768,-3.7723,-3.7729,-3.7733,0,0,0,0,0,0,-3.6206,-3.6259,-3.6311,-3.6481,-3.6538,-3.6767,-3.6771,-3.6799,-3.6882,-3.6887,-3.7055,-3.7081,-3.7163,-3.7331,-3.7367,-3.7419,-3.7368,-3.7757,-3.7763,-3.7768,-3.7725,-3.7729,-3.7733,0,0,0,0,0,-3.6221,-3.6263,-3.6639,-3.648,-3.653,-3.6676,-3.6768,-3.6792,-3.6857,-3.7011,-3.7038,-3.6919,-3.7162,-3.7199,-3.7353,-3.74,-3.7344,-3.7357,-3.7761,-3.7765,-3.7769,-3.7727,0,0,0,0,0,0,-3.6232,-3.6286,-3.6651,-3.6669,-3.645,-3.6665,-3.6702,-3.6785,-3.6978,-3.7006,-3.688,-3.6881,-3.7162,-3.7191,-3.7219,-3.7388,-3.7324,-3.7338,-3.7346,-3.7764,-3.7768,-3.7771,0,0,0,0,0,0,-3.6264,-3.6301,-3.666,-3.6617,-3.6631,-3.6654,-3.6687,-3.6832,-3.6979,-3.6837,-3.6844,-3.6878,-3.712,-3.7186,-3.7208,-3.743,-3.7309,-3.7322,-3.7331,-3.7336,-3.7767,-3.777,0,0,0,0,0,0,-3.6281,-3.6314,-3.6613,-3.6624,-3.6636,-3.6851,-3.6784,-3.7034,-3.6941,-3.6827,-3.6936,-3.6933,-3.7114,-3.7139,-3.72,-3.7412,-3.7425,-3.7309,-3.7318,-3.7324,-3.7328,0,0,0,0,0,0,0,-3.6296,-3.6058,-3.6541,-3.663,-3.664,-3.6841,-3.6846,-3.6851,-3.6941,-3.6939,-3.6936,-3.6934,-3.7236,-3.725,-3.7264,-3.7398,0,0,-3.7308,-3.7314,0,0,0,0,0,0,0,0,-3.6047,-3.6055,-3.6541,-3.6545,-3.6549,-3.6841,-3.6846,-3.685,-3.694,-3.6939,-3.6937,-3.6935,-3.724,-3.7251,-3.7263,0,0,0,0,0,0,0,0,0,0,0,0,0,0,0,-3.6542,-3.6545,0,-3.6842,-3.6845,-3.6849,-3.694,-3.6939,-3.6937,-3.6936,-3.7243,-3.7252,-3.7262,0,0,0,0,0,0,0,0,0,0,0,0,0,0,0,0,0,0,0,0,0,0,0,0,0,0,0,0,0,0,0,0,0,0,0,0,0,0,0,0,0,0,0,0,0,0,0,0,0,0,0,0,0,0,0,0,0,0,0,0,0,0,0,0,0,0,0,0,0]}],[{"header":{"parameterUnit":"kt","parameterCategory":2,"dx":1,"dy":1,"la1":30.253999710083008,"la2":30.299108505249023,"lo1":-89.0895004272461,"lo2":-89.04439544677734,"nx":28,"ny":28,"refTime":"2022-10-21T21:00:00:Z","depth":0,"parameterNumber":2,"parameterNumberName":"V-component_of_WINDS"},"data":[7.5479,7.5534,7.549,7.5534,7.5502,7.5524,7.5518,7.5506,7.5486,7.551,7.5517,7.548,7.5443,7.5441,7.5447,7.543,7.5433,7.5487,7.5457,7.5259,7.5228,7.5199,7.5179,7.549,7.5491,7.5666,7.5668,7.5669,7.5342,7.531,7.532,7.5299,7.5307,7.523,7.5208,7.522,7.5243,7.5219,7.5222,7.524,7.525,7.5193,7.5195,7.5221,7.5183,7.5225,7.5218,7.5213,7.5001,7.4981,7.5255,7.5255,7.5255,7.5255,7.5255,7.5255,7.5078,7.5114,7.5073,7.5082,7.506,7.5047,7.5073,7.5024,7.5034,7.5027,7.4973,7.4999,7.4966,7.4945,7.4927,7.4947,7.4892,7.4923,7.4929,7.4936,7.495,7.4697,7.4946,7.4945,7.4945,7.4944,7.4943,0,7.4869,7.4828,7.4833,7.4826,7.483,7.482,7.4803,7.4819,7.4716,7.473,7.4744,7.4746,7.475,7.4759,7.475,7.4723,7.464,7.4629,7.4648,7.467,7.4693,7.4676,7.4328,7.4619,7.4617,7.4614,7.4613,7.4612,7.4595,7.4642,7.4576,7.4586,7.4563,7.4583,7.4584,7.4489,7.4495,7.4462,7.4499,7.4507,7.4507,7.4542,7.4482,7.4485,7.4443,7.4559,7.4442,7.4465,7.4438,7.4433,7.4436,7.458,7.4584,7.4588,7.459,0,7.4444,7.4365,7.4423,7.4352,7.4336,7.4391,7.433,7.4363,7.431,7.4348,7.4351,7.4267,7.4284,7.4204,7.4209,7.4167,7.4259,7.4222,7.4269,7.4255,7.4347,7.4337,7.4667,7.4703,7.4386,7.4389,7.4392,0,7.4176,7.4242,7.4119,7.4157,7.4229,7.4127,7.4202,7.4161,7.4127,7.4156,7.4048,7.4078,7.397,7.399,7.3928,7.399,7.3992,7.3961,7.3942,7.3966,7.3969,7.3962,7.3944,7.3905,7.3903,7.3901,7.39,0,7.3942,7.3955,7.4016,7.4005,7.3934,7.3966,7.3939,7.3898,7.39,7.3892,7.3891,7.3891,7.3888,7.389,7.3808,7.3732,7.3884,7.3761,7.3851,7.3853,7.3882,7.388,7.4199,7.3898,7.3898,7.3897,7.3897,0,7.3709,7.3698,7.38,7.3736,7.3743,7.3785,7.3772,7.3789,7.3755,7.3716,7.3709,7.3624,7.3673,7.3557,7.3623,7.3546,7.3551,7.3527,7.3532,7.3524,7.3394,7.3576,7.3894,7.3921,7.3528,7.3525,7.3522,0,7.3461,7.3541,7.3451,7.3551,7.3575,7.3446,7.3492,7.3463,7.3415,7.343,7.3377,7.3396,7.3293,7.3286,7.3331,7.3276,7.3378,7.3261,7.3283,7.3285,7.3288,7.3582,7.3644,7.3835,7.3482,7.3486,7.3489,0,7.3256,7.3163,7.3187,7.3167,7.311,7.313,7.3185,7.3177,7.3192,7.3173,7.3213,7.3241,7.3162,7.3153,7.3083,7.3133,7.3306,7.3041,7.3038,7.3087,7.3456,7.3516,7.3548,7.3249,7.3253,7.3257,7.3458,0,7.2913,7.2941,7.3004,7.2966,7.2969,7.3027,7.2932,7.2948,7.2878,7.2821,7.2883,7.2837,7.2831,7.2848,7.278,7.2922,7.2883,7.2799,7.2672,7.2869,7.2932,7.2958,7.2587,7.2582,7.2579,7.2576,0,0,7.2692,7.2728,7.2623,7.2667,7.2661,7.2522,7.2592,7.2571,7.2533,7.2533,7.2463,7.2493,7.2458,7.2541,7.2595,7.2595,7.2611,7.2544,7.2778,7.2801,7.2821,7.2891,7.292,7.257,7.2568,7.2567,7.2566,0,7.2542,7.2507,7.2575,7.2548,7.2503,7.2438,7.2456,7.2386,7.2353,7.2411,7.2293,7.2319,7.2346,7.2322,7.2314,7.2535,7.2443,7.2542,7.2689,7.2745,7.2773,7.2797,7.2871,7.29,7.2557,7.2558,7.2558,0,7.2319,7.2265,7.2288,7.2267,7.2236,7.2265,7.211,7.2148,7.2168,7.2011,7.2069,7.2031,7.1993,7.2085,7.2123,7.2059,7.2295,7.2205,7.2225,7.2225,7.2274,7.2308,7.2338,7.1944,7.1943,7.1941,0,0,7.2203,7.2227,7.2137,7.2227,7.2216,7.212,7.2125,7.2052,7.2018,7.2005,7.1951,7.1924,7.1937,7.1948,7.1956,7.2072,7.2053,7.2133,7.2162,7.2186,7.2199,7.2256,7.2289,7.1934,7.1934,7.1934,0,0,7.2147,7.2043,7.1975,7.2067,7.2039,7.1955,7.2015,7.193,7.1926,7.1907,7.1788,7.1775,7.1859,7.1826,7.1748,7.1909,7.1787,7.1804,7.1926,7.1961,7.1989,7.1992,7.158,0,0,0,0,0,7.1941,7.2055,7.1995,7.1996,7.1967,7.1989,7.1985,7.1886,7.1801,7.1851,7.1793,7.1694,7.1759,7.1687,7.1691,7.1776,7.1848,7.1863,7.1878,7.2061,7.2099,7.2131,0,0,0,0,0,0,7.194,7.1941,7.1992,7.1914,7.1907,7.1984,7.1818,7.1794,7.1793,7.1773,7.1708,7.1692,7.161,7.1678,7.1683,7.1766,7.1578,7.1854,7.1867,7.1879,7.2074,7.2105,7.2132,0,0,0,0,0,7.1939,7.194,7.1919,7.1912,7.1906,7.1802,7.1812,7.1791,7.1789,7.1697,7.1677,7.1714,7.1615,7.1612,7.168,7.1766,7.1573,7.1576,7.1862,7.1873,7.1882,7.209,0,0,0,0,0,0,7.1938,7.1921,7.1916,7.191,7.1859,7.1796,7.1782,7.179,7.171,7.1692,7.1696,7.1681,7.162,7.1617,7.1616,7.1772,7.157,7.1572,7.1574,7.187,7.1878,7.1885,0,0,0,0,0,0,7.192,7.1918,7.1913,7.1852,7.1838,7.179,7.1778,7.1822,7.1711,7.1714,7.1699,7.169,7.1622,7.1621,7.1619,7.1692,7.1567,7.1569,7.1571,7.1572,7.1877,7.1883,0,0,0,0,0,0,7.1918,7.1915,7.1852,7.1842,7.183,7.1761,7.1827,7.1805,7.1657,7.172,7.1641,7.1634,7.163,7.1626,7.1623,7.1697,7.1693,7.1567,7.1569,7.157,7.1571,0,0,0,0,0,0,0,7.1915,7.1953,7.1949,7.1835,7.1823,7.1859,7.1858,7.1856,7.1655,7.1649,7.1643,7.1637,7.1555,7.1557,7.156,7.1701,0,0,7.1567,7.1568,0,0,0,0,0,0,0,0,7.1951,7.1952,7.1948,7.1947,7.1946,7.1859,7.1858,7.1857,7.1654,7.1649,7.1644,7.1639,7.1555,7.1557,7.1559,0,0,0,0,0,0,0,0,0,0,0,0,0,0,0,7.1948,7.1947,0,7.1859,7.1858,7.1857,7.1654,7.1649,7.1645,7.1641,7.1556,7.1558,7.1559,0,0,0,0,0,0,0,0,0,0,0,0,0,0,0,0,0,0,0,0,0,0,0,0,0,0,0,0,0,0,0,0,0,0,0,0,0,0,0,0,0,0,0,0,0,0,0,0,0,0,0,0,0,0,0,0,0,0,0,0,0,0,0,0,0,0,0,0,0]}]]]